Location: ??????
(55.6130°N, 37.7882°E)
Time: 19:19:04
(UTC+00:00)

Cosmos 1536 - Pass Details

Date: 14 April 2024
Orbit: 515 x 542 km, 82.6° (Epoch: 26 May)

Event Time Altitude Azimuth Distance (km) Brightness Sun altitude
Rises 00:32:23 0° 343° (NNW) 2,684 6.7 -14.6°
Reaches altitude 10° 00:34:38 10° 336° (NNW) 1,784 5.7 -14.3°
Maximum altitude 00:38:17 39° 267° (W) 794 3.2 -14.0°
Enters shadow 00:40:13 23° 212° (SSW) 1,152 3.9 -13.8°
